CZ-8 R/B, 63177

Orbit data source: Space-Track

CZ-8 R/B, 63177 is space debris in LEO originally from a launch on Tue, 11 Mar 2025 UTC launched from the Wenchang Satellite Launch Center (WSC). Debris objects in space refer to the collection of defunct objects orbiting the Earth. Examples of debris include non-operational satellites, rocket bodies, and fragments generated from explosions, collisions, or faulty payload assembly.

Loading next visibility...
Identifier
63177, 2025-046U
Orbit
LEO
Country
Flag of CNCN / PRC
Related business
Manufacturer
CALT
Mission
Spacecraft
Bus & Motor
CZ-3A STAGE 3, Unknown motor
Mass
~2,800 kg wet, ~2,800 kg dry
Launch date (UTC)
2025-03-11 (1 year ago)
Launch vehicle
Unknown
Launch site
Wenchang Satellite Launch Center (WSC)
Object type
Payload
Rocket body
Debris
Shape & HBR
Cyl + 1 Nozzle, 4.0 m
Radar Cross Section
32.704 m², Large (>1 m²)

Expand to show TLE details & history
Last TLE update: 10 hours ago

TLE from 10 hours ago
0 CZ-8 R/B
1 63177U 25046U   26171.41466311  .00000160  00000-0  81422-4 0  9992
2 63177  88.9699 295.6002 0064366  76.0265 284.8066 14.09653420 75549
Epoch: 2026-06-20T09:57Z
TLE epoch observation values (Epoch: 2026-06-20T09:57:06.892Z)
Latitude
Longitude
-122.30814°
Altitude
851.968 km
Speed
7.433 km/s
True Right ascension
19h 42m 24s
True Declination
0° 00' 00"
Sunlit
Object was in full shadow at epoch
Visualization orbit readout
Latitude
Unknown
Longitude
Unknown
Altitude
Unknown
Speed
Unknown
Apparent Right ascension
Unknown
Apparent Declination
Unknown
Sunlit
N/A
Visualization observer readout
Local Sidereal Time
07:16:05
Azimuth
Unknown
Elevation
Unknown
Doppler factor
Unknown
Orbital elements
Apogee altitude
904.097 km
Perigee altitude
810.951 km
Semi-major axis
7,235.661 km
Eccentricity
0.00644
Inclination
88.9699°
RAAN
295.6002°
Arg. of periapsis
76.0265°
True anomaly
284.09206°
Mean anomaly
284.8066°
Eccentric anomaly
284.44948°
Mean motion
3.52635 °/min
Orbital period
102.09 mins
BSTAR
0.000081422
Loading maneuver chart data...
Computing Atmospheric mass density...
Loading historical data...
Loading historical data...
Loading historical data...
Loading historical data...
Loading historical data...
Loading historical data...
Loading historical data...

Documentation

Showing up to 5 results
|